This is the latest recevied weather packets stored in our database for station/object K3HW. If no packets are shown the sender has not sent any weather packets the latest 10 day(s).
| Time | Temp. | Humidity | Pressure | Rain* | Wind** | Luminosity | Snow |
|---|---|---|---|---|---|---|---|
| 1778111649 | 18.89° C | 80% | 1011.2 hPa | 0 mm | - | 1 W/m² | - |
| 1778111344 | 18.89° C | 79% | 1011.1 hPa | 0 mm | - | 1 W/m² | - |
| 1778111042 | 18.89° C | 79% | 1011.1 hPa | 0 mm | - | 2 W/m² | - |
| 1778110739 | 19.44° C | 79% | 1011.2 hPa | 0 mm | - | 3 W/m² | - |
| 1778110435 | 19.44° C | 78% | 1011.1 hPa | 0 mm | - | 4 W/m² | - |
| 1778110132 | 19.44° C | 78% | 1011 hPa | 0 mm | - | 4 W/m² | - |
| 1778109828 | 19.44° C | 78% | 1011.2 hPa | 0 mm | - | 8 W/m² | - |
| 1778109524 | 19.44° C | 78% | 1011.1 hPa | 0 mm | - | 9 W/m² | - |
| 1778109222 | 19.44° C | 78% | 1011.1 hPa | 0 mm | - | 6 W/m² | - |
| 1778108919 | 19.44° C | 77% | 1010.9 hPa | 0 mm | - | 14 W/m² | - |
| 1778108616 | 19.44° C | 77% | 1011.1 hPa | 0 mm | - | 5 W/m² | - |
| 1778108312 | 19.44° C | 77% | 1011.3 hPa | 0 mm | - | 9 W/m² | - |
| 1778108010 | 19.44° C | 77% | 1010.9 hPa | 0 mm | - | 15 W/m² | - |
| 1778107706 | 19.44° C | 76% | 1010.8 hPa | 0 mm | - | 21 W/m² | - |
| 1778107404 | 20° C | 76% | 1011.1 hPa | 0 mm | - | 22 W/m² | - |
| 1778107100 | 20° C | 75% | 1010.9 hPa | 0 mm | - | 22 W/m² | - |
| 1778106795 | 20.56° C | 75% | 1011 hPa | 0 mm | - | 32 W/m² | - |
| 1778106493 | 20.56° C | 73% | 1011 hPa | 0 mm | - | 42 W/m² | - |
| 1778106188 | 20.56° C | 74% | 1010.8 hPa | 0 mm | - | 54 W/m² | - |
| 1778105887 | 20.56° C | 73% | 1010.7 hPa | 0 mm | - | 91 W/m² | - |
| 1778105584 | 20° C | 76% | 1010.6 hPa | 0 mm | - | 63 W/m² | - |
| 1778105281 | 20° C | 76% | 1010.9 hPa | 0 mm | - | 29 W/m² | - |
| 1778104976 | 20° C | 76% | 1010.8 hPa | 0 mm | - | 34 W/m² | - |
| 1778104673 | 19.44° C | 77% | 1011 hPa | 0 mm | - | 49 W/m² | - |
| 1778104369 | 19.44° C | 77% | 1011 hPa | 0 mm | - | 33 W/m² | - |
* Rain latest hour (hover to see other rain measurements)
** Current wind speed in m/s (hover to see current wind gust speed)